Date String (YYYY-MM-DD hh:mm:ss) UTC,Instrument flags,absolute air pressure of the measurement (hPa),sample flow rate (lpm),inlet stack bypass flow (lpm),air temperature of the measurement (°C),ambient temperature measured by the external sensor (°C),aerosol sample conditioner tube jacket temperature (°C),OPC LED temperature (°C),internal box temperature (°C),relative humidity of the measurement (%),span deviation,mass concentration of particles derived from Lorenz-Mie calculation of OPC scattering (μg/m³),mass concentration of particles derived from Lorenz-Mie calculation of OPC scattering (μg/m³),mass concentration of particles derived from Lorenz-Mie calculation of OPC scattering (μg/m³)
DateTimeUTC,F1_M11,P_M11,Q1_M11,Q2_M11,T1_M11,T2_M11,T3_M11,T4_M11,T5_M11,U1_M11,ZSPAN_M11,X2_M11,X0_M11,X1_M11
2023-09-28 02:00:00,SystemResetWarning,0828.2,5.00,000.00,028.0,026.7,000.0,036.4,029.8,16.2,0000.0,0006.39,0020.35,0005.17
2023-09-28 02:01:00,SystemResetWarning,0828.2,5.00,000.00,028.0,026.9,000.0,036.4,029.9,16.1,0000.0,0006.43,0020.99,0005.16
2023-09-28 02:02:00,SystemResetWarning,0828.2,5.00,000.00,028.1,027.0,000.0,036.4,030.0,16.1,0000.0,0006.48,0021.04,0005.17
2023-09-28 02:03:00,SystemResetWarning,0828.2,4.99,000.00,028.1,027.1,000.0,036.4,030.0,16.1,0000.0,0006.52,0020.53,0005.17
2023-09-28 02:04:00,SystemResetWarning,0828.1,5.00,000.00,028.2,027.2,000.0,036.5,030.1,16.1,0000.0,0006.53,0020.28,0005.18
2023-09-28 02:05:00,SystemResetWarning,0828.1,4.99,000.00,028.2,026.0,000.0,036.5,030.0,15.9,0000.0,0006.51,0018.48,0005.20
2023-09-28 02:06:00,SystemResetWarning,0828.1,5.01,000.00,028.1,024.8,000.0,036.4,029.8,15.9,0000.0,0006.51,0018.38,0005.21
2023-09-28 02:07:00,SystemResetWarning,0828.1,5.01,000.00,028.1,024.7,000.0,036.4,029.7,15.9,0000.0,0006.57,0018.78,0005.21
2023-09-28 02:08:00,SystemResetWarning,0828.0,5.00,000.00,028.0,024.9,000.0,036.4,029.6,15.8,0000.4,0006.64,0019.37,0005.21
2023-09-28 02:09:00,SystemResetWarning,0828.1,5.00,000.00,028.0,025.3,000.0,036.4,029.6,16.1,0001.5,0006.67,0018.70,0005.22
2023-09-28 02:10:00,SystemResetWarning,0828.1,5.00,000.00,028.0,025.7,000.0,036.4,029.7,16.3,0000.4,0006.69,0017.42,0005.24
2023-09-28 02:11:00,SystemResetWarning,0828.1,5.00,000.00,028.0,026.0,000.0,036.4,029.8,16.3,0003.8,0006.71,0017.41,0005.26
2023-09-28 02:12:00,SystemResetWarning,0828.1,5.00,000.00,028.0,026.3,000.0,036.4,029.8,16.2,0003.9,0006.72,0017.96,0005.27
2023-09-28 02:13:00,SystemResetWarning,0828.1,5.00,000.00,028.1,026.6,000.0,036.5,029.9,16.2,0003.4,0006.73,0018.41,0005.29
2023-09-28 02:14:00,SystemResetWarning,0828.1,5.00,000.00,028.1,026.8,000.0,036.5,030.0,16.1,0003.2,0006.73,0019.67,0005.30
2023-09-28 02:15:00,SystemResetWarning,0828.1,5.00,000.00,028.1,027.0,000.0,036.5,030.0,16.1,0003.0,0006.76,0019.98,0005.31
2023-09-28 02:16:00,SystemResetWarning,0828.0,5.00,000.00,028.2,027.1,000.0,036.5,030.1,16.1,0003.0,0006.81,0020.23,0005.32
2023-09-28 02:17:00,SystemResetWarning,0828.0,4.99,000.00,028.2,026.5,000.0,036.5,030.1,16.0,0003.4,0006.89,0021.18,0005.33
2023-09-28 02:18:00,SystemResetWarning,0828.1,5.00,000.00,028.2,024.9,000.0,036.5,029.9,16.0,0003.4,0006.91,0021.73,0005.34
2023-09-28 02:19:00,SystemResetWarning,0828.1,5.01,000.00,028.1,024.7,000.0,036.4,029.8,16.0,0003.5,0006.90,0021.85,0005.35
2023-09-28 02:20:00,SystemResetWarning,0828.1,5.01,000.00,028.0,024.9,000.0,036.4,029.6,16.2,0003.0,0006.87,0021.91,0005.35
2023-09-28 02:21:00,SystemResetWarning,0828.1,4.99,000.00,028.0,025.2,000.0,036.5,029.7,16.3,0001.7,0006.86,0023.01,0005.33
2023-09-28 02:22:00,SystemResetWarning,0828.1,5.01,000.00,028.0,025.6,000.0,036.5,029.7,16.3,0000.0,0006.87,0022.32,0005.33
2023-09-28 02:23:00,SystemResetWarning,0828.1,5.00,000.00,028.0,025.9,000.0,036.5,029.8,16.3,0000.0,0006.87,0021.18,0005.35
2023-09-28 02:24:00,SystemResetWarning,0828.1,5.00,000.00,028.0,026.2,000.0,036.5,029.8,16.2,0001.4,0006.86,0020.21,0005.36
2023-09-28 02:25:00,SystemResetWarning,0828.0,5.01,000.00,028.1,026.5,000.0,036.5,029.9,16.2,0001.8,0006.85,0019.19,0005.36
2023-09-28 02:26:00,SystemResetWarning,0828.1,5.00,000.00,028.1,026.7,000.0,036.5,029.9,16.0,0001.9,0006.84,0019.35,0005.35
2023-09-28 02:27:00,SystemResetWarning,0828.1,5.00,000.00,028.2,026.9,000.0,036.5,030.0,15.9,0000.1,0006.84,0019.17,0005.34
2023-09-28 02:28:00,SystemResetWarning,0828.1,5.00,000.00,028.2,027.1,000.0,036.6,030.1,15.7,0000.0,0006.81,0019.44,0005.34
2023-09-28 02:29:00,SystemResetWarning,0828.1,4.99,000.00,028.3,026.8,000.0,036.6,030.1,15.9,0000.0,0006.77,0019.13,0005.33
2023-09-28 02:30:00,SystemResetWarning,0828.1,4.99,000.00,028.2,025.2,000.0,036.5,030.0,16.0,0000.0,0006.76,0018.16,0005.34
2023-09-28 02:31:00,SystemResetWarning,0828.0,5.02,000.00,028.2,024.6,000.0,036.5,029.8,15.9,0000.0,0006.77,0018.41,0005.34
2023-09-28 02:32:00,SystemResetWarning,0828.1,5.00,000.00,028.1,024.8,000.0,036.5,029.7,16.1,0000.0,0006.77,0017.94,0005.35
2023-09-28 02:33:00,SystemResetWarning,0828.1,5.00,000.00,028.0,025.1,000.0,036.5,029.6,15.9,0000.0,0006.75,0018.06,0005.34
2023-09-28 02:34:00,SystemResetWarning,0828.1,5.00,000.00,028.0,025.5,000.0,036.5,029.7,16.1,0000.0,0006.73,0018.44,0005.31
2023-09-28 02:35:00,SystemResetWarning,0828.1,5.00,000.00,028.0,025.8,000.0,036.5,029.7,15.9,0000.0,0006.69,0018.99,0005.28
2023-09-28 02:36:00,SystemResetWarning,0828.1,5.00,000.00,028.0,026.1,000.0,036.5,029.8,15.9,0000.0,0006.66,0019.02,0005.27
2023-09-28 02:37:00,SystemResetWarning,0828.1,5.00,000.00,028.1,026.4,000.0,036.5,029.9,16.0,0000.0,0006.60,0017.95,0005.25
2023-09-28 02:38:00,SystemResetWarning,0828.2,5.00,000.00,028.1,026.6,000.0,036.5,029.9,15.9,0000.0,0006.56,0018.15,0005.24
2023-09-28 02:39:00,SystemResetWarning,0828.2,5.01,000.00,028.1,026.8,000.0,036.5,030.0,15.7,0000.0,0006.48,0018.13,0005.20
2023-09-28 02:40:00,SystemResetWarning,0828.2,4.99,000.00,028.2,027.0,000.0,036.6,030.0,15.6,0000.0,0006.42,0017.52,0005.18
2023-09-28 02:41:00,SystemResetWarning,0828.2,4.99,000.00,028.2,027.1,000.0,036.6,030.1,15.7,0000.0,0006.37,0018.62,0005.17
2023-09-28 02:42:00,SystemResetWarning,0828.2,5.00,000.00,028.3,026.6,000.0,036.6,030.1,15.7,0000.0,0006.33,0018.94,0005.14
2023-09-28 02:43:00,SystemResetWarning,0828.2,5.00,000.00,028.2,025.1,000.0,036.5,029.9,15.7,0000.0,0006.34,0019.41,0005.12
2023-09-28 02:44:00,SystemResetWarning,0828.2,5.00,000.00,028.2,024.7,000.0,036.5,029.8,15.7,0000.0,0006.35,0019.23,0005.10
2023-09-28 02:45:00,SystemResetWarning,0828.2,5.01,000.00,028.1,024.8,000.0,036.5,029.6,15.7,0000.0,0006.37,0018.99,0005.11
2023-09-28 02:46:00,SystemResetWarning,0828.2,5.00,000.00,028.0,025.2,000.0,036.5,029.6,15.7,0000.0,0006.44,0018.41,0005.12
2023-09-28 02:47:00,SystemResetWarning,0828.2,5.00,000.00,028.0,025.5,000.0,036.5,029.7,15.6,0000.5,0006.46,0017.67,0005.12
2023-09-28 02:48:00,SystemResetWarning,0828.2,5.01,000.00,028.0,025.9,000.0,036.5,029.8,15.7,0002.6,0006.48,0017.63,0005.13
2023-09-28 02:49:00,SystemResetWarning,0828.2,5.00,000.00,028.0,026.2,000.0,036.5,029.8,15.6,0002.8,0006.50,0018.55,0005.14
2023-09-28 02:50:00,SystemResetWarning,0828.2,5.00,000.00,028.1,026.5,000.0,036.5,029.9,15.7,0001.1,0006.52,0018.13,0005.15
2023-09-28 02:51:00,SystemResetWarning,0828.2,5.00,000.00,028.1,026.7,000.0,036.5,029.9,15.7,0001.1,0006.52,0017.81,0005.15
2023-09-28 02:52:00,SystemResetWarning,0828.2,5.00,000.00,028.2,026.9,000.0,036.6,030.0,15.6,0002.2,0006.50,0017.21,0005.14
2023-09-28 02:53:00,SystemResetWarning,0828.2,5.00,000.00,028.2,027.0,000.0,036.6,030.1,15.5,0002.0,0006.51,0018.14,0005.14
2023-09-28 02:54:00,SystemResetWarning,0828.2,5.00,000.00,028.2,027.2,000.0,036.6,030.1,15.5,0001.6,0006.49,0017.06,0005.15
2023-09-28 02:55:00,SystemResetWarning,0828.2,5.00,000.00,028.3,027.0,000.0,036.6,030.2,15.5,0001.6,0006.42,0017.97,0005.16
2023-09-28 02:56:00,SystemResetWarning,0828.2,4.99,000.00,028.3,025.4,000.0,036.6,030.0,15.4,0001.7,0006.39,0018.17,0005.15
2023-09-28 02:57:00,SystemResetWarning,0828.2,5.03,000.00,028.2,024.6,000.0,036.5,029.8,15.4,0000.3,0006.31,0018.42,0005.14
2023-09-28 02:58:00,SystemResetWarning,0828.2,4.99,000.00,028.1,024.7,000.0,036.5,029.7,15.6,0000.0,0006.22,0018.08,0005.13
2023-09-28 02:59:00,SystemResetWarning,0828.1,5.00,000.00,028.0,025.0,000.0,036.5,029.6,15.7,0000.0,0006.25,0019.08,0005.14
